ATLAS 5 CENTAUR DEB, 44654

Orbit data source: Space-Track

ATLAS 5 CENTAUR DEB, 44654 is space debris in HEO originally from a launch on Wed, 17 Oct 2018 UTC launched from the Air Force Eastern Test Range (AFETR). Debris objects in space refer to the collection of defunct objects orbiting the Earth. Examples of debris include non-operational satellites, rocket bodies, and fragments generated from explosions, collisions, or faulty payload assembly.

Loading next visibility...
Identifier
44654, 2018-079Q
Orbit
HEO
Country
Flag of USUS
Related business
Flag of USUnited Launch Alliance/Lockheed Martin (US)
Manufacturer
ULA Decatur
Mission
Spacecraft
Bus & Motor
Unknown
Mass
Unknown
Launch date (UTC)
2018-10-17 (8 years ago)
Launch vehicle
Unknown
Launch site
Air Force Eastern Test Range (AFETR)
Object type
Payload
Rocket body
Debris
Shape & HBR
Unknown shape, 1.1 m
Radar Cross Section
Medium (>0.1 m² and <1 m²)

Expand to show TLE details & history
Last TLE update: 1 day ago

TLE from 1 day ago
0 ATLAS 5 CENTAUR DEB
1 44654U 18079Q   26248.41401444 -.00000197  00000-0  00000-0 0  9990
2 44654  13.6621  27.7752 4683361 325.0337  11.5835  1.80723375 46748
Epoch: 2026-09-05T09:56Z
TLE epoch observation values (Epoch: 2026-09-05T09:56:10.847Z)
Latitude
-0.0001°
Longitude
-105.76053°
Altitude
9,662.51 km
Speed
5.975 km/s
True Right ascension
01h 51m 14s
True Declination
0° 00' 00"
Sunlit
Object was in daylight at epoch
Visualization orbit readout
Latitude
Unknown
Longitude
Unknown
Altitude
Unknown
Speed
Unknown
Apparent Right ascension
Unknown
Apparent Declination
Unknown
Sunlit
N/A
Visualization observer readout
Local Sidereal Time
13:53:05
Azimuth
Unknown
Elevation
Unknown
Doppler factor
Unknown
Orbital elements
Apogee altitude
35,428.899 km
Perigee altitude
8,759.604 km
Semi-major axis
28,472.389 km
Eccentricity
0.46834
Inclination
13.6621°
RAAN
27.7752°
Arg. of periapsis
325.0337°
True anomaly
34.79488°
Mean anomaly
11.5835°
Eccentric anomaly
21.35476°
Mean motion
0.45176 °/min
Orbital period
796.88 mins
BSTAR
0
Loading maneuver chart data...
Computing Atmospheric mass density...

Documentation

Showing up to 5 results
|